Printer-friendly version

IAU Minor Planet Center

Minor Planet Center

MPEC 2001-K07: 2001 JV2

The following Minor Planet Electronic Circular may be linked-to from your own Web pages, but must not otherwise be redistributed electronically.


Read MPEC 2001-K06 Read MPEC 2001-K08


M.P.E.C. 2001-K07                                Issued 2001 May 17, 17:02 UT

     The Minor Planet Electronic Circulars contain information on unusual
         minor planets and routine data on comets.  They are published
   on behalf of Commission 20 of the International Astronomical Union by the
          Minor Planet Center, Smithsonian Astrophysical Observatory,
                          Cambridge, MA 02138, U.S.A.

             Prepared using the Tamkin Foundation Computer Network

                              MPC@CFA.HARVARD.EDU
          URL http://cfa-www.harvard.edu/iau/mpc.html  ISSN 1523-6714

                                   2001 JV2

Observations:
     K01J02V* C2001 05 15.27767 16 57 03.35 +49 33 26.6          18.7        704
     K01J02V  C2001 05 15.28898 16 57 01.04 +49 34 01.4          19.4        704
     K01J02V  C2001 05 15.30036 16 56 58.56 +49 34 36.9          18.7        704
     K01J02V  C2001 05 15.31170 16 56 56.09 +49 35 11.6          18.8        704
     K01J02V  C2001 05 16.26719 16 53 40.22 +50 22 02.4          19.5 V      926
     K01J02V  C2001 05 16.27311 16 53 39.00 +50 22 19.1          19.8 V      926
     K01J02V  C2001 05 16.27378 16 53 38.91 +50 22 20.6          19.5 V      926
     K01J02V  C2001 05 16.27447 16 53 38.67 +50 22 23.0          19.4 V      926
     K01J02V  C2001 05 16.27517 16 53 38.53 +50 22 25.6          19.3 V      926
     K01J02V  C2001 05 16.27601 16 53 38.32 +50 22 27.8          19.6 V      926
     K01J02V  C2001 05 16.40130 16 53 10.74 +50 28 17.5          19.0 R      649
     K01J02V  C2001 05 16.40919 16 53 09.14 +50 28 41.4          18.7 R      649
     K01J02V  C2001 05 16.41492 16 53 08.20 +50 28 55.7          19.2 R      649
     K01J02V  C2001 05 17.14448 16 50 42.19 +51 01 55.7          18.7 R      649
     K01J02V  C2001 05 17.14865 16 50 41.22 +51 02 06.8          19.2 R      649
     K01J02V  C2001 05 17.15281 16 50 40.16 +51 02 18.4          19.1 R      649
     K01J02V  C2001 05 17.19500 16 50 32.08 +51 04 09.8          20.0 V      926
     K01J02V  C2001 05 17.19591 16 50 31.77 +51 04 13.6          19.2 V      926
     K01J02V  C2001 05 17.19683 16 50 31.46 +51 04 16.1          20.0 V      926

Observer details:
649 Powell Observatory, Louisburg.  Observers K. Smalley, D. Trentman.
    Measurer K. Smalley.  0.75-m Newtonian + CCD.
704 Lincoln Laboratory ETS, New Mexico.  Observers M. Blythe, F. Shelly,
    M. Bezpalko, R. Huber, L. Manguso, S. Adams.  Measurers J. Stuart,
    R. Sayer, J. B. Evans, H. Viggh.  1.0-m f/2.15 reflector + CCD.
926 Tenagra II Observatory.  Observer M. Schwartz.  Measurer P. R. Holvorcem.
    0.5-m f/10 Ritchey-Chretien + CCD.

Orbital elements:
2001 JV2
Epoch 2001 May 11.0 TT = JDT 2452040.5                  Spahr
M  54.12135              (2000.0)            P               Q
n   0.65591748     Peri.  301.92588     -0.76622856     -0.46343758
a   1.3119076      Node   217.00975     +0.37620302     -0.88511183
e   0.2405689      Incl.   47.68365     -0.52092714     +0.04245770
P   1.50           H   19.0           G   0.15
From 19 observations 2001 May 15-17.

Ephemeris:
2001 JV2                 a,e,i = 1.31, 0.24, 48                  q = 0.9963
Date    TT    R. A. (2000) Decl.     Delta      r     Elong.  Phase     V
2001 05 11    17 11.97   +45 14.1    0.358    1.188   111.3    52.4    19.1
2001 05 21    16 37.98   +53 27.3    0.468    1.225   105.7    52.7    19.7
2001 05 31    16 09.27   +56 54.7    0.581    1.262   101.1    52.1    20.2
2001 06 10    15 48.43   +57 52.5    0.692    1.299    97.2    50.9    20.7
2001 06 20    15 35.62   +57 27.5    0.796    1.334    94.0    49.4    21.0
2001 06 30    15 30.00   +56 13.3    0.893    1.369    91.4    47.9    21.2
2001 07 10    15 30.31   +54 28.8    0.980    1.402    89.2    46.5    21.5
2001 07 20    15 35.39   +52 23.8    1.057    1.434    87.5    45.1    21.6
2001 07 30    15 44.38   +50 03.7    1.125    1.463    86.1    43.8    21.8
2001 08 09    15 56.61   +47 32.5    1.184    1.491    85.0    42.6    21.9
2001 08 19    16 11.54   +44 51.7    1.236    1.516    84.2    41.6    22.0

Timothy B. Spahr             (C) Copyright 2001 MPC           M.P.E.C. 2001-K07

Read MPEC 2001-K06 Read MPEC 2001-K08


Our Web policy. Index to the CBAT/MPC/ICQ pages.


Valid HTML 4.01!